Regional Weather Roundup
Issued by NWS

Home | Current Version | Previous Version | Text Only | Print | Product List | Glossary On
Versions: 1 2 3 4 5 6 7 8 9 10 11 12 13 14 15 16 17 18 19 20 21 22 23 24 25 26 27 28 29 30 31 32 33 34 35 36 37 38 39 40 41 42 43 44 45 46 47 48 49 50
000
ASUS43 KTOP 292059
RWRKS

WEATHER ROUNDUP FOR KANSAS
NATIONAL WEATHER SERVICE GOODLAND KS
400 PM CDT SUN MAR 29 2015

NOTE:  "FAIR" INDICATES FEW OR NO CLOUDS BELOW 12,000 FEET WITH NO
SIGNIFICANT WEATHER AND/OR OBSTRUCTIONS TO VISIBILITY.

KSZ001>006-013>018-027>032-041>047-292200-
NORTHWEST KANSAS

CITY           SKY/WX    TMP DP  RH WIND       PRES   REMARKS
GOODLAND       SUNNY     65  21  18 N22       30.19F
HAYS           SUNNY     68  27  21 NW23G33   30.13S
HILL CITY      SUNNY     68  23  18 NW15G32   30.15F
RUSSELL        SUNNY     70  29  21 N23G31    30.09F
$$

KSZ061>065-074>080-084>089-292200-
SOUTHWEST KANSAS

CITY           SKY/WX    TMP DP  RH WIND       PRES   REMARKS
DODGE CITY     SUNNY     71  26  18 N22G31    30.14F
ELKHART          N/A     71  24  17 N13         N/A
GARDEN CITY    SUNNY     68  25  19 N24G30    30.16F
GREAT BEND     SUNNY     70  28  21 N23G29    30.11S
LIBERAL        SUNNY     73  28  19 N23G31    30.17F
$$

KSZ066>073-081>083-090>101-292200-
SOUTHEAST KANSAS

CITY           SKY/WX    TMP DP  RH WIND       PRES   REMARKS
CHANUTE        PTSUNNY   68  42  38 N8        30.01F
COFFEYVILLE    PTSUNNY   62  44  51 CALM      30.03F
HUTCHINSON     MOSUNNY   74  34  23 N18G31    30.06F
MEDICINE LODGE   N/A     73  32  22 N24G32    30.08R
NEWTON         MOSUNNY   72  34  25 N23G29    30.07S
PARSONS        MOSUNNY   64  45  49 CALM      30.04S
WICHITA INTL   MOSUNNY   72  29  20 N21G30    30.04S
WICHITA JABRA  PTSUNNY   71  31  22 N17       30.04S
WINFIELD       PTSUNNY   72  34  24 N16       30.05R
$$

KSZ007>012-019>026-033>040-048>060-102>105-292200-
NORTHEAST KANSAS

CITY           SKY/WX    TMP DP  RH WIND       PRES   REMARKS
CONCORDIA      SUNNY     68  30  24 N23G35    30.07S
EMPORIA        PTSUNNY   72  37  28 NW21G32   30.01S
LAWRENCE       PTSUNNY   70  40  33 N21G31    29.99S
MANHATTAN      SUNNY     70  36  28 N16G23    30.04
OLATHE IND     PTSUNNY   67  40  37 N23       30.00S
OLATHE EXE     CLOUDY    66  40  38 NW14G23   29.98S
SALINA         SUNNY     73  33  23 NW23G35   30.06S
TOPEKA BILLARD   N/A     70  41  34 NW25G33   30.01S
TOPEKA FORBES  MOSUNNY   71  40  32 NW26G32   30.01R
$$


USA.gov is the U.S. government's official web portal to all federal, state and local government web resources and services.